Flag for U.S.A. Weather past 2 weeks in Hopkinsville, Kentucky, U.S.A.

Now
71 °F

Clear.


Feels Like: 72 °F
Forecast: 65 / 87 °F
Wind: 2 mph from Northwest

Location: Fort Campbell U. S. Army Airfield

Current Time: Jul 31, 2015 at 12:17:49 AM

Latest Report: Jul 30, 2015 at 10:58 PM


Visibility: 10 mi

Pressure: 30.09 "Hg

Humidity: 78%

Dew point: 64 °F

Location of HopkinsvilleLocation

Historic Weather in Hopkinsville — Graph

°F

Hopkinsville temperature yesterday

Maximum temperature yesterday: 85 °F (at 3:58 PM)
Minimum temperature yesterday: 70 °F (at 6:58 AM)
Average temperature yesterday: 78 °F

Past Weeks' High & Low Weather Summary

 TemperatureHumidityPressure
High93 °F (Jul 28, 3:58 PM)100% (Jul 21, 5:01 AM)30.12 "Hg (Jul 21, 5:01 AM)
Low66 °F (Jul 25, 5:58 AM)47% (Jul 16, 3:58 PM)29.78 "Hg (Jul 20, 8:58 PM)
Average80 °F78%29.95 "Hg
* Reported Jul 15 10:58 PM — Jul 30 10:58 PM, Hopkinsville, Weather by CustomWeather, © 2015

Note: Actual official high and low records may vary slightly from our data, if they occured in-between our weather recording intervals... More about our weather records

Advertising

Hopkinsville weather history for previous 24 hours

 ConditionsComfort  
Time TempWeatherWind HumidityBarometerVisibility
10:58 PM
Thu, Jul 30
71 °FClear.2 mph78%30.09 "Hg10 mi
9:58 PM72 °FClear.1 mph73%30.09 "Hg10 mi
8:58 PM75 °FClear.2 mph66%30.07 "Hg10 mi
7:58 PM78 °FClear.3 mph56%30.06 "Hg10 mi
6:58 PM81 °FSunny.7 mph54%30.05 "Hg10 mi
5:58 PM83 °FSunny.8 mph53%30.04 "Hg10 mi
4:58 PM84 °FSunny.10 mph50%30.06 "Hg10 mi
3:58 PM85 °FSunny.8 mph48%30.07 "Hg10 mi
2:58 PM84 °FSunny.10 mph47%30.09 "Hg10 mi
1:58 PM84 °FSunny.8 mph47%30.11 "Hg10 mi
12:58 PM84 °FSunny.13 mph49%30.11 "Hg9 mi
11:58 AM83 °FSunny.10 mph50%30.12 "Hg10 mi
10:58 AM81 °FSunny.12 mph54%30.11 "Hg10 mi
9:58 AM80 °FSunny.14 mph60%30.11 "Hg10 mi
8:58 AM77 °FSunny.8 mph67%30.11 "Hg10 mi
7:58 AM73 °FSunny.10 mph75%30.09 "Hg10 mi
6:58 AM70 °FSunny.6 mph83%30.08 "Hg10 mi
5:58 AM72 °FPartly sunny.6 mph80%30.07 "Hg10 mi
4:58 AM72 °FPassing clouds.7 mph82%30.05 "Hg10 mi
3:58 AM74 °FPassing clouds.9 mph87%30.03 "Hg10 mi
2:58 AM75 °FClear.8 mph91%30.02 "Hg10 mi
1:58 AM74 °FClear.5 mph95%30.02 "Hg10 mi
12:58 AM73 °FClear.2 mph91%30.02 "Hg10 mi
Weather by CustomWeather, © 2015

See weather overviewHow to use our weather pages